sat.trackr.live / text

‹ back to catalog

STARLINK-5028

NORAD 53886 · 2022-119A

PAYLOAD ACTIVE UNKNOWN

§ Identity

Operator
Country
US
Launch date
2022-09-24
Launch site
AFETR
Launch vehicle
Mass (kg)
RCS (m²)

Purposes: comms

External: N2YO · Heavens-Above · Gunter

§ Orbital elements

Epoch: 2026-09-20T10:25:22.179072Z

Period
93.85 min
Inclination
53.1619°
Eccentricity
0.0001930
Mean motion
15.34395043 rev/d
Perigee alt
461.4 km
Apogee alt
464.0 km
Semi-major
6,840.9 km
B*
5.1115e-5
RAAN
163.6735°
Arg perigee
86.1226°
Mean anomaly
273.9998°
Rev number
22,116

§ Raw data

STARLINK-50281 53886U 22119A   26263.43428448  .00001350  00000+0  51115-4 0  99962 53886  53.1619 163.6735 0001930  86.1226 273.9998 15.34395043221162

JSON: /api/v1/satellites/53886 · /tle

For live sub-satellite position, see the globe view (requires WebGL).

§ Visibility from observer

Set your observer location to see the next 7 days of passes ≥ 10°. The values pass through the URL so the page stays shareable.

No JS? Fill the form by hand. The geolocation button needs JavaScript.